Theta_e
309 310 316 318 318 317 319 326 330 331 328 332 334 336 336 336 336 338 341 340 339 338 337 336 337 336 336 336 336 334 333 333 332 329 324 322 319 316 316 317 318 318 317 316 316 316 316 316 316
309 316 317 318 319 320 323 330 328 326 328 332 331 333 332 331 334 341 341 340 338 336 336 336 336 335 336 336 331 328 329 328 326 323 319 317 317 316 317 317 317 316 315 312 311 310 311 313 315
311 317 317 316 318 319 327 329 326 327 329 331 332 331 331 331 332 339 339 338 339 338 334 333 333 334 330 324 323 324 324 324 321 318 317 317 316 316 316 316 315 311 307 308 308 309 309 310 310
316 317 316 315 316 319 329 327 328 329 330 331 331 330 330 331 335 340 340 339 337 335 331 328 320 317 316 316 317 317 317 318 318 318 317 317 316 315 314 315 314 308 307 308 308 308 309 309 309
316 318 315 316 319 328 326 327 329 328 328 333 333 329 328 330 333 336 335 334 323 319 315 314 315 315 316 316 316 316 317 317 317 317 317 317 315 313 314 315 313 309 308 308 309 308 308 308 308
317 316 315 316 327 327 325 329 329 328 328 333 332 329 327 327 329 330 329 326 313 315 316 316 315 314 314 314 313 313 314 316 316 316 317 315 314 314 315 314 311 309 308 309 309 310 310 310 309
316 315 316 316 321 326 324 324 323 328 325 333 332 328 327 326 325 325 326 323 318 317 316 315 315 315 311 308 308 309 311 312 314 316 315 322 324 324 324 319 318 316 315 314 313 314 314 313 313
317 315 316 316 323 320 321 319 323 322 320 328 330 329 327 325 324 324 324 327 327 325 326 327 323 326 323 313 309 309 311 313 322 322 327 327 325 324 324 326 324 323 319 319 319 317 318 318 318
319 313 314 316 318 317 319 316 317 322 323 327 327 330 329 325 324 323 325 327 329 329 329 328 326 324 325 324 325 323 322 321 321 324 328 328 326 325 325 325 324 322 319 320 318 317 318 319 319
315 313 315 315 314 313 316 316 317 319 321 329 329 330 329 326 324 323 324 326 330 330 329 329 325 323 325 325 327 327 326 327 328 327 325 327 325 327 325 324 322 321 319 318 317 317 317 318 318
317 314 314 314 317 317 315 316 318 318 316 326 331 329 328 327 325 325 324 327 327 329 330 328 320 325 326 324 327 327 326 325 328 329 324 322 325 325 324 319 316 315 316 317 317 317 316 317 318
316 316 316 316 316 316 314 316 316 317 317 321 330 332 331 328 328 326 325 326 328 330 330 330 323 319 326 328 326 327 326 325 328 325 322 314 317 316 313 313 314 315 317 317 316 315 314 315 316
316 315 316 316 317 317 317 316 317 317 319 320 323 330 329 329 328 328 327 326 328 330 331 331 326 315 319 328 327 327 326 326 322 321 319 312 312 313 312 312 312 313 314 315 315 314 313 315 316
318 316 315 316 317 318 317 317 318 317 318 321 325 329 328 328 328 328 329 328 328 330 330 330 329 326 316 321 322 319 320 320 321 320 318 316 313 312 312 312 312 313 313 314 314 314 313 315 316
319 316 315 317 318 317 318 317 316 318 317 319 323 327 327 328 329 329 328 329 328 329 329 331 329 326 325 319 318 320 322 319 320 320 320 318 317 317 314 314 313 313 312 312 311 310 310 313 313
318 317 316 317 318 318 317 315 316 319 318 318 319 319 325 327 329 328 326 327 328 328 329 331 326 324 324 324 320 320 321 320 320 321 319 319 318 317 315 314 311 310 311 311 310 309 311 312 315
317 315 318 318 319 319 317 317 316 319 319 319 318 318 319 323 326 326 326 327 327 328 327 330 329 326 324 323 322 321 321 319 318 317 317 317 316 315 314 313 311 312 310 309 309 308 309 311 310
317 317 318 318 318 318 316 317 317 320 321 321 321 320 318 322 325 326 326 326 326 326 327 330 328 325 323 323 322 321 320 318 318 317 316 316 315 314 313 312 312 312 310 308 307 306 305 304 303
318 318 318 317 318 318 318 317 318 320 320 320 323 324 323 323 323 323 326 325 326 327 328 328 323 322 322 322 322 320 318 316 316 315 315 314 314 313 313 312 310 307 307 306 305 304 302 299 300
319 320 320 318 318 317 317 319 317 319 319 321 321 321 322 323 323 323 323 326 325 324 324 323 323 322 319 318 317 317 316 315 315 314 314 313 313 313 312 310 306 306 305 305 304 303 301 303 304
320 321 320 320 318 318 319 319 318 318 320 320 320 321 320 320 321 321 322 322 321 321 321 321 319 318 317 316 315 315 314 313 313 314 314 313 312 311 308 306 306 305 303 303 303 300 302 305 305
322 321 321 320 319 318 316 319 318 318 318 319 319 319 320 320 321 320 320 318 318 318 317 316 315 315 314 314 313 313 314 314 313 313 311 309 308 307 307 306 304 301 300 300 299 303 305 304 304
322 321 320 320 319 320 319 319 318 319 319 318 318 319 319 319 319 319 319 318 317 317 316 315 315 315 315 314 314 314 313 311 309 309 309 308 308 307 306 303 299 298 301 302 303 303 303 302 302
319 321 321 321 321 321 322 321 324 321 320 318 319 319 319 319 319 318 318 318 318 317 316 316 316 316 315 314 314 312 311 311 310 310 310 308 306 304 300 298 299 300 301 301 301 301 299 299 299
319 322 321 323 321 322 325 323 323 320 318 319 319 319 319 319 318 318 318 318 317 317 316 316 316 316 316 314 313 312 312 311 311 310 308 305 301 299 299 299 298 299 299 299 299 299 298 298 297
321 321 317 326 322 321 317 322 320 317 318 319 319 319 319 318 318 317 317 316 316 316 315 315 315 314 314 314 313 311 310 309 308 306 303 300 299 299 299 299 296 296 297 297 297 297 297 296 295
322 318 318 321 320 316 319 320 318 317 318 318 318 318 318 318 317 317 315 315 315 315 314 314 314 314 314 313 312 310 307 306 304 302 300 300 300 299 299 295 296 296 295 294 294 294 293 293 293
318 318 319 317 320 321 318 322 323 320 320 319 316 316 316 315 315 315 314 314 314 314 313 313 312 312 311 309 308 307 305 303 302 301 300 300 299 298 294 293 293 294 294 293 292 292 291 291 291
319 320 319 318 315 317 316 316 317 319 319 317 315 315 315 315 314 314 313 313 312 312 311 310 311 310 308 307 306 305 304 302 301 301 300 300 297 294 294 294 293 292 291 290 290 289 289 289 290
318 319 319 313 318 313 313 314 315 315 316 316 315 315 315 314 313 313 313 312 312 311 309 308 306 305 305 305 304 304 302 302 301 300 299 298 295 294 293 293 292 291 290 289 289 289 289 289 289
Wind_Speed
8 3 1 4 3 2 4 7 7 9 11 31 26 21 17 17 7 8 22 16 13 14 18 15 14 13 11 10 9 9 9 10 9 9 9 10 10 10 10 9 9 10 10 10 11 10 10 11 12
5 1 3 4 2 2 3 10 11 9 18 38 29 29 29 19 28 26 23 15 10 19 18 16 14 13 11 10 9 9 9 8 8 8 8 9 9 10 9 10 11 11 11 11 11 11 11 11 12
4 1 2 3 2 3 3 8 6 7 17 22 14 27 14 15 15 21 23 10 13 15 15 16 14 13 11 10 9 8 7 7 7 7 9 10 10 11 11 11 11 11 11 11 12 14 14 14 14
2 1 4 1 8 7 10 9 12 8 22 32 22 10 28 23 24 23 20 16 12 14 17 17 15 13 11 9 7 6 6 6 7 8 9 10 10 10 10 9 9 10 10 12 13 14 14 14 14
6 2 1 4 5 6 8 17 17 6 13 33 35 15 25 25 28 22 16 11 17 21 19 18 14 12 9 7 6 5 5 7 8 9 9 9 8 9 8 8 9 9 10 11 12 14 15 15 15
2 2 2 4 12 2 6 18 11 13 13 28 31 26 23 26 24 21 16 15 19 20 19 16 13 10 7 5 5 6 6 7 8 9 8 7 9 10 11 9 11 11 12 13 15 16 16 16 16
3 1 5 6 9 7 6 13 8 13 16 14 31 12 23 25 21 20 16 15 18 19 17 14 12 10 10 9 9 9 9 9 9 9 9 10 11 12 14 13 14 14 15 16 17 17 17 15 13
7 3 7 5 4 3 5 19 23 21 9 23 18 8 17 27 23 21 15 16 14 13 13 11 10 10 11 11 10 11 11 12 12 12 11 10 12 13 15 13 16 16 19 18 16 20 17 14 11
19 1 8 14 4 5 8 6 18 19 19 21 11 33 32 29 24 20 19 19 15 11 12 8 7 8 8 12 15 13 12 11 10 10 10 7 10 10 13 13 14 16 16 16 19 18 17 16 16
7 3 3 2 10 7 8 14 8 14 16 24 29 31 29 26 22 21 21 19 21 15 16 12 5 7 7 8 8 10 10 11 10 9 8 6 7 6 9 8 10 14 12 15 17 20 19 20 22
4 5 6 13 23 19 18 14 9 16 6 27 33 31 25 21 20 19 19 20 20 15 18 12 5 14 7 2 5 7 9 7 4 5 4 5 2 0 5 7 9 10 12 13 15 17 20 19 20
5 15 16 9 15 16 9 13 3 4 13 24 29 28 23 21 20 18 21 21 19 18 20 13 7 9 14 11 10 11 9 6 4 5 4 3 0 1 2 5 8 8 9 11 13 17 21 18 19
6 7 13 8 8 13 12 9 2 15 18 24 27 27 23 20 18 16 19 23 20 22 22 15 8 7 10 10 11 11 8 5 6 3 3 3 4 4 7 10 11 11 11 13 17 21 25 21 22
11 17 13 7 7 5 1 3 6 12 18 27 25 28 23 21 22 18 18 23 18 25 22 17 11 5 7 13 8 8 6 3 2 4 5 6 6 6 9 11 12 13 15 16 20 23 24 22 23
11 6 7 7 13 5 4 4 6 10 20 20 20 23 20 21 23 22 16 18 22 19 30 26 13 6 8 9 6 7 3 0 3 7 8 11 8 8 8 10 12 14 17 21 24 27 24 23 23
3 3 4 5 12 9 9 7 8 19 16 22 21 18 22 22 25 25 18 15 19 21 29 27 11 18 17 9 5 9 6 2 3 5 4 7 8 12 13 12 13 18 21 24 27 25 23 23 22
2 5 5 5 16 5 4 7 14 22 19 16 20 22 19 21 23 25 20 16 13 12 12 18 8 15 15 11 9 6 5 6 6 9 7 8 8 12 15 14 22 30 28 27 27 28 26 27 28
4 5 6 7 2 4 3 2 4 8 6 3 5 4 20 14 19 22 19 18 13 11 7 11 11 6 10 15 10 8 6 4 6 4 6 10 12 15 16 22 35 36 33 31 28 27 28 29 29
4 5 10 4 5 2 3 3 6 20 10 21 27 33 33 34 24 23 23 17 14 19 20 22 22 19 14 14 10 10 9 6 3 5 8 10 15 19 26 28 28 25 28 28 28 28 26 28 29
4 6 5 4 4 3 2 1 7 16 14 25 31 33 31 28 24 20 14 18 15 10 6 6 6 11 8 8 8 8 6 4 5 8 10 17 19 24 23 25 19 21 23 27 31 30 32 27 26
7 5 5 4 6 4 2 2 8 8 25 32 31 29 25 23 21 16 14 13 10 9 4 2 1 1 4 3 4 5 5 9 12 15 20 20 21 26 22 18 21 24 27 28 29 32 26 29 29
4 5 5 5 4 3 5 1 4 10 13 20 28 30 30 27 22 16 12 10 8 8 6 8 10 11 10 9 11 15 14 13 15 18 18 20 23 22 18 22 26 31 29 30 27 20 21 23 25
2 0 3 3 4 3 6 4 3 12 12 10 20 22 21 19 17 14 8 7 7 7 8 7 7 13 18 17 18 14 10 11 7 12 17 19 20 22 23 28 28 24 22 19 21 22 24 25 25
5 4 5 3 2 2 7 4 2 4 12 6 18 21 17 14 9 4 5 3 5 6 9 9 3 3 11 11 9 12 13 13 14 20 23 22 25 28 26 22 21 18 20 22 24 26 31 30 27
4 6 3 4 4 3 6 6 2 4 9 14 18 22 16 13 13 13 12 8 2 5 5 4 7 13 15 11 11 12 15 17 19 21 23 24 24 23 21 21 23 26 24 23 23 23 24 23 24
5 4 4 1 1 4 5 4 0 10 24 24 19 13 13 12 11 7 2 1 2 4 4 7 10 11 12 14 16 15 16 18 19 20 23 20 20 18 19 21 29 22 24 25 25 22 22 25 28
5 5 1 5 1 3 2 5 5 8 9 14 10 10 14 12 12 10 13 8 3 5 8 9 10 10 14 15 16 17 17 19 18 20 15 17 16 19 26 31 24 25 29 27 27 28 27 25 23
5 2 5 4 1 2 2 4 3 3 5 3 7 13 16 20 19 14 12 10 9 9 13 17 18 18 16 17 19 21 21 17 17 13 14 16 21 29 31 23 21 23 23 24 23 23 22 22 21
4 3 4 2 4 4 1 3 3 6 5 4 15 16 18 15 15 13 12 13 14 16 17 17 19 20 22 22 24 26 24 19 19 23 26 26 31 27 20 17 17 22 22 22 24 24 24 23 23
1 3 4 4 3 1 4 5 5 9 16 16 15 16 13 13 10 10 11 12 16 21 23 25 24 18 15 22 26 20 24 25 26 27 25 28 25 19 15 17 23 22 22 24 23 24 25 26 25
Wind_Direction
275 232 288 308 46 94 283 322 77 62 57 69 75 80 87 71 111 116 135 137 131 145 146 148 136 130 126 115 103 88 74 67 66 61 52 46 41 33 25 17 7 2 356 352 350 342 338 335 333
234 185 321 279 122 125 291 63 69 91 109 82 76 87 66 72 91 118 116 127 118 140 144 142 136 130 122 114 103 89 82 78 66 57 52 47 40 33 28 21 15 13 10 9 5 2 0 358 354
201 316 293 180 174 209 178 105 116 99 97 99 74 55 77 97 108 125 133 146 125 110 137 132 132 127 122 114 108 97 84 72 63 54 52 42 33 28 26 23 23 21 22 27 21 18 14 8 5
107 103 269 61 255 270 122 121 104 60 68 95 91 58 83 105 112 120 133 127 128 129 128 126 124 118 110 101 93 85 80 70 63 61 48 39 35 31 28 24 25 22 25 23 16 12 7 3 2
40 352 1 301 296 72 111 116 103 88 64 98 96 104 97 107 119 134 131 124 125 124 121 114 111 106 102 97 91 85 76 72 63 51 42 39 34 30 33 26 23 17 16 11 9 6 3 359 356
69 256 13 275 100 136 66 109 90 88 98 99 102 107 119 124 129 131 142 132 128 121 117 114 109 99 92 90 85 79 78 72 61 53 54 49 44 39 33 31 22 10 6 359 356 354 352 350 351
141 117 234 234 253 79 65 51 77 149 92 119 123 121 130 134 133 141 146 133 122 120 114 104 99 92 79 80 83 83 79 69 67 65 59 62 51 41 31 13 11 4 360 352 348 351 350 352 356
190 130 324 302 106 83 78 61 74 84 72 108 131 143 141 139 143 149 137 121 120 119 110 100 99 96 71 67 71 81 83 84 76 71 64 45 23 26 17 26 13 11 8 9 7 0 7 1 2
242 205 245 251 168 152 109 81 67 94 79 64 83 146 145 142 147 142 140 138 140 124 121 129 114 96 79 64 69 70 73 78 72 89 66 61 15 29 14 14 7 1 10 2 358 360 1 349 345
170 132 272 106 125 132 148 113 102 109 101 94 107 129 143 148 152 152 157 151 157 144 150 155 142 114 98 66 65 68 67 59 59 75 38 33 34 39 7 2 349 349 3 350 357 357 354 345 340
247 158 71 30 122 135 110 120 124 143 155 141 137 138 143 147 157 165 170 174 180 187 180 187 152 137 140 88 94 113 92 53 64 53 1 78 129 102 303 323 352 10 1 357 352 343 338 333 331
72 74 87 46 49 97 114 127 134 108 178 161 156 154 151 157 172 182 189 190 192 187 189 184 169 158 149 150 145 130 134 156 162 275 354 28 110 348 14 18 17 8 359 346 328 328 334 330 328
107 94 82 86 61 77 98 135 191 121 133 163 157 157 158 166 181 196 203 197 202 191 191 192 189 182 169 179 183 177 183 171 224 262 349 16 6 14 3 5 -0 356 344 327 323 325 333 325 319
118 109 115 162 102 69 92 162 138 149 137 150 158 164 168 178 188 193 206 204 206 194 199 199 182 188 191 197 204 182 174 152 240 296 333 350 346 356 352 344 338 335 331 319 315 317 322 316 310
111 112 155 170 153 169 203 330 196 190 152 156 158 179 183 191 192 191 185 188 195 201 188 186 188 175 249 227 196 190 163 301 252 298 312 321 321 314 311 321 329 325 318 315 314 317 316 312 311
173 124 142 230 172 177 137 259 237 155 162 171 178 185 193 197 199 187 179 188 185 196 194 189 186 218 222 243 178 159 200 336 208 260 242 241 263 285 303 317 323 321 317 315 315 315 311 302 296
290 234 169 193 179 147 144 278 159 166 173 190 194 194 202 200 189 178 167 176 182 202 207 208 214 160 174 200 190 183 237 299 275 277 269 238 267 288 299 306 326 330 326 315 306 303 298 297 296
254 249 176 137 147 88 313 296 58 123 143 195 241 272 200 93 116 126 123 115 125 134 162 162 137 143 174 192 175 182 190 215 228 236 265 274 294 298 303 304 318 317 314 309 306 302 300 301 306
357 30 111 98 77 63 265 74 94 59 84 73 90 95 93 90 93 93 87 102 102 95 117 138 142 151 154 181 199 212 186 190 262 289 291 301 303 304 309 297 313 308 308 310 309 310 308 306 305
342 29 42 111 127 106 1 56 103 75 63 92 96 93 92 85 79 79 82 82 87 104 109 118 137 174 178 192 210 223 251 284 305 301 299 302 298 299 296 305 299 301 307 306 307 313 315 306 303
46 77 24 33 343 337 330 101 98 80 81 80 89 94 90 93 90 86 88 94 94 84 69 6 35 185 234 228 257 267 259 272 268 273 296 305 298 302 306 294 295 305 308 307 309 308 306 300 298
63 19 4 332 12 229 118 24 130 116 91 84 80 83 92 94 92 86 80 81 76 82 62 34 3 355 356 329 312 309 312 315 312 297 294 297 305 304 295 297 304 309 308 305 307 304 299 299 301
140 273 271 311 306 356 312 73 276 115 100 99 97 94 89 91 91 84 53 36 45 47 27 33 24 353 348 337 327 325 316 305 287 282 295 298 295 299 297 305 317 320 320 308 302 302 304 307 306
280 287 257 248 170 25 297 133 281 117 135 112 108 106 107 107 105 102 115 86 13 357 7 13 66 3 8 343 306 292 293 291 283 291 299 301 308 313 324 327 326 319 311 308 305 305 303 304 306
8 32 2 2 18 220 316 57 235 176 140 140 118 106 107 114 125 131 145 148 99 353 6 354 306 306 296 292 295 288 286 287 289 293 302 315 320 325 330 327 324 317 312 311 309 302 302 305 301
317 81 125 77 59 282 326 86 45 81 88 101 115 137 156 173 170 158 164 262 41 48 355 317 311 309 291 286 287 295 298 297 298 305 319 327 322 319 316 314 319 317 314 309 310 306 305 307 306
350 45 189 107 337 50 139 77 58 103 107 124 132 149 164 180 139 112 87 84 53 348 342 339 325 300 293 289 288 300 311 314 322 327 324 317 310 313 318 325 324 322 321 319 321 319 322 324 325
107 218 42 2 90 303 2 125 210 188 110 56 65 88 82 84 92 75 67 56 31 0 340 327 323 316 308 311 316 313 314 323 318 302 303 303 309 316 322 331 326 324 328 327 327 328 328 327 326
14 15 26 83 117 153 356 288 131 95 113 140 99 92 90 69 46 33 19 5 352 342 341 332 319 317 324 321 319 313 308 299 294 295 292 296 310 314 325 325 318 319 319 320 322 324 324 322 318
313 81 87 107 305 46 142 283 95 96 69 56 71 82 72 63 50 25 0 341 338 331 328 327 323 335 327 321 316 313 314 299 293 288 288 299 313 321 311 308 312 316 317 319 321 319 315 311 306